FENGYUN 1C DEB

Satellite information

Favourite Embed

Satellite Type and Status

DEBRISIN ORBIT

Key statistics

Satellite FENGYUN 1C DEB at a glance.

Uptime

9715

Days in orbit

Revolutions

≈ 14.1

Per day

Orbit

SSO

Sun Synchronous Orbit

Inclination

98.8

Latest

Satellite identification and parameters

Extended collection of information and parameters for FENGYUN 1C DEB.

Object identification

Identified? True

Debris? True

Object name: FENGYUN 1C DEB

International designator: 1999-025DML

Object number (NORAD): 35156

Object ID (CCSDS): 35156

Country: PEOPLES REPUBLIC OF CHINA (PRC)

Current information (Y/N): Y

RCS size: SMALL

Orbital parameters

Period: 102.082 minutes

Inclination: 98.7527 deg

SMA: 7235.367 km

Apoapsis: 884.004 km

Periapsis: 830.459 km

RAAN: 333.1123 deg

Eccentricy: 0.00370025

Argument of periapsis: 148.5895 deg

Mean anomaly: 211.7497 deg

Mean motion: 14.10626157 rev/day

Mean motion (dot): 0.00000841 rev/day2

B* drag term: 0.00049181464 1/REarth

Two-line elements (TLE)

Creation date: Dec. 13, 2025, 4:32 a.m.

Reference frame: TEME

Reference center: EARTH

Epoch: Dec. 12, 2025, 4:32 p.m. UTC

TLE line 0: 0 FENGYUN 1C DEB

TLE line 1: 1 35156U 99025DML 25346.68938496 .00000841 00000-0 49181-3 0 9997

TLE line 2: 2 35156 98.7527 333.1123 0037002 148.5895 211.7497 14.10626157640439

Live tracking on map

Real-time ground track for satellite FENGYUN 1C DEB.

In-orbit conjunctions

A list of the most updated potential collisions computed for object FENGYUN 1C DEB.

Target Orbit TCA Probability of collision Miss distance Type
COSMOS 1275 DEB LEO 2025-02-18 12:47:19 0.0001585798 183.0 (m) DEBRIS
SL-3 R/B LEO 2024-06-01 04:52:26 0.000407607 124.0 (m) ROCKET BODY

Associated space launch

Chinese polar orbiting meteorological satellite

FENGYUN 1C DEB was lifted into orbit during the mission ‘Long March 4B | Feng Yun 1C’, on board a Long March 4B space rocket.

The launch took place on May 10, 1999, 1:33 a.m. from Launch Complex 7.

For more information about the launch, click the button.

Launch to space Long March 4B | Feng Yun 1C
Long March 4B | Feng Yun 1C

Agency: N/A

Status: Launch Successful

Launch date: May 10, 1999, 1:33 a.m. UTC

Rocket: Long March 4B

Launch pad: Launch Complex 7

Location: Taiyuan Satellite Launch Center, People's Republic of China

...

Latest news about this satellite

There are no fresh news available about this satellite. Check back as we update our databases every day.


Newsletter sign-up

Weekly statistics, charts and insights to help you stay on top of the space industry.